sat.trackr.live / text

‹ back to catalog

STARLINK-2178

NORAD 47760 · 2021-017AQ

PAYLOAD ACTIVE UNKNOWN

§ Identity

Operator
Country
US
Launch date
2021-03-04
Launch site
AFETR
Launch vehicle
Mass (kg)
RCS (m²)

Purposes: comms

External: N2YO · Heavens-Above · Gunter

§ Orbital elements

Epoch: 2026-09-19T23:49:01.313184Z

Period
94.01 min
Inclination
53.1599°
Eccentricity
0.0001257
Mean motion
15.31699084 rev/d
Perigee alt
469.9 km
Apogee alt
471.6 km
Semi-major
6,848.9 km
B*
9.1244e-6
RAAN
32.4564°
Arg perigee
90.4334°
Mean anomaly
269.6812°
Rev number
30,746

§ Raw data

STARLINK-21781 47760U 21017AQ  26262.99237631 -.00000082  00000+0  91244-5 0  99982 47760  53.1599  32.4564 0001257  90.4334 269.6812 15.31699084307460

JSON: /api/v1/satellites/47760 · /tle

For live sub-satellite position, see the globe view (requires WebGL).

§ Visibility from observer

Set your observer location to see the next 7 days of passes ≥ 10°. The values pass through the URL so the page stays shareable.

No JS? Fill the form by hand. The geolocation button needs JavaScript.